Regional Weather Roundup
Issued by NWS

Home | Current Version | Previous Version | Graphics & Text | Print | Product List | Glossary On
Versions: 1 2 3 4 5 6 7 8 9 10 11 12 13 14 15 16 17 18 19 20 21 22 23 24 25 26 27 28 29 30 31 32 33 34 35 36 37 38 39 40 41 42 43 44 45 46 47 48 49 50
007
ASUS43 KOAX 202302
RWRNE

WEATHER ROUNDUP FOR NEBRASKA
NATIONAL WEATHER SERVICE OMAHA NE
500 PM CST MON FEB 20 2017

NOTES: SATELLITE DATA IS BEING USED TO AUGMENT CLOUD COVER ABOVE
       12000 FEET.
       "FAIR" INDICATES FEW OR NO CLOUDS BELOW 12,000 FEET WITH NO
       SIGNIFICANT WEATHER AND/OR OBSTRUCTIONS TO VISIBILITY.

  * THESE STATIONS DO NOT REPORT WEATHER SUCH AS RAIN...SNOW OR FOG.

NEZ001>004-019>022-054>056-210000-
NEBRASKA PANHANDLE

CITY           SKY/WX    TMP DP  RH WIND       PRES   REMARKS
SCOTTSBLUFF    SUNNY     63  21  20 W18G24    29.90F
ALLIANCE       SUNNY     61  20  20 W15       29.89F
CHADRON        SUNNY     63  21  20 W18G24    29.85F
KIMBALL        SUNNY     62  23  22 W22G29    29.96R
SIDNEY         SUNNY     62  21  20 NW16G23   29.94F
$$

NEZ057>060-069>072-079>082-210000-
SOUTHWEST NEBRASKA

CITY           SKY/WX    TMP DP  RH WIND       PRES   REMARKS
NORTH PLATTE   SUNNY     63  24  22 NW15      29.92R
IMPERIAL       SUNNY     62  12  14 NW18      29.96R
LEXINGTON      SUNNY     63  31  30 N9        29.90R
MCCOOK         SUNNY     64  27  24 NW17      29.93R
OGALLALA       SUNNY     64  14  14 NW15G21   29.93F
$$

NEZ005>010-023>029-035>040-094-210000-
NORTH CENTRAL NEBRASKA

CITY           SKY/WX    TMP DP  RH WIND       PRES   REMARKS
VALENTINE      SUNNY     61  21  21 NW15G28   29.87R
AINSWORTH      SUNNY     59  30  32 NW13G18   29.88R
BROKEN BOW     SUNNY     61  32  33 N14       29.88R
O`NEILL        SUNNY     59  33  37 NW15      29.84R
ORD            SUNNY     61  32  33 N15       29.86R
THEDFORD       SUNNY     61  29  29 NW14G21   29.91R
$$

NEZ041-046>049-061>064-073>077-083>087-210000-
SOUTH CENTRAL NEBRASKA

CITY           SKY/WX    TMP DP  RH WIND       PRES   REMARKS
GRAND ISLAND   SUNNY     60  39  45 N16       29.87R
AURORA         SUNNY     60  40  48 NW17G23   29.86R
HASTINGS       SUNNY     61  36  39 N23       29.88R
HEBRON         SUNNY     64  42  44 N12       29.84R
HOLDREGE       SUNNY     61  30  31 N15G22    29.90R
KEARNEY *      SUNNY     61  32  33 N16G22    29.89R
YORK           CLOUDY    61  43  51 NW17G23   29.85R
$$

NEZ011>018-030>034-042>045-210000-
NORTHEAST NEBRASKA

CITY           SKY/WX    TMP DP  RH WIND       PRES   REMARKS
NORFOLK        SUNNY     57  38  48 NW23      29.82R
ALBION         SUNNY     60  38  43 NW18      29.85R
BLAIR          PTSUNNY   57  46  67 NW8       29.80S
FREMONT        MOSUNNY   58  43  56 NW13      29.84R
TEKAMAH        CLOUDY    57  44  62 NW15      29.81R
WAYNE          MOSUNNY   57  44  60 NW15G25   29.81R
$$

NEZ050>053-065>068-078-088>093-210000-
SOUTHEAST NEBRASKA

CITY           SKY/WX    TMP DP  RH WIND       PRES   REMARKS
LINCOLN        MOSUNNY   62  44  51 N10       29.83R
OMAHA EPPLEY   PTSUNNY   60  51  72 NW12      29.80R
BEATRICE       MOSUNNY   65  47  50 NW9       29.82R
FALLS CITY     CLOUDY    60  54  80 SW8       29.83R
NEBRASKA CITY  CLOUDY    59  55  84 SW8       29.82R
PLATTSMOUTH    CLOUDY    60  55  82 S8        29.81S
$$

NEZ044-045-051>053-067-210000-
OMAHA AREA

CITY           SKY/WX    TMP DP  RH WIND       PRES   REMARKS
OMAHA EPPLEY   PTSUNNY   60  51  72 NW12      29.80R
BLAIR          PTSUNNY   57  46  67 NW8       29.80S
FREMONT        MOSUNNY   58  43  56 NW13      29.84R
MILLARD        PTSUNNY   61  50  66 NW8       29.81R
PLATTSMOUTH    CLOUDY    60  55  82 S8        29.81S
WAHOO          FAIR      59  43  54 N13       29.83R
$$




USA.gov is the U.S. government's official web portal to all federal, state and local government web resources and services.